sat.trackr.live / text

‹ back to catalog

GSAT-30

NORAD 45026 · 2020-005A

PAYLOAD ACTIVE UNKNOWN

§ Identity

Operator
Country
IND
Launch date
2020-01-16
Launch site
FRGUI
Launch vehicle
Mass (kg)
RCS (m²)

Purposes: comms

External: N2YO · Heavens-Above · Gunter

§ Orbital elements

Epoch: 2026-05-25T04:08:07.507968Z

Period
1,436.09 min
Inclination
0.0056°
Eccentricity
0.0003324
Mean motion
1.00272023 rev/d
Perigee alt
35,772.5 km
Apogee alt
35,800.5 km
Semi-major
42,164.7 km
B*
0.0000e+0
RAAN
123.8638°
Arg perigee
308.7873°
Mean anomaly
315.1639°
Rev number
2,327

§ Raw data

GSAT-301 45026U 20005A   26145.17230912 -.00000167  00000+0  00000+0 0  99902 45026   0.0056 123.8638 0003324 308.7873 315.1639  1.00272023 23278

JSON: /api/v1/satellites/45026 · /tle

For live sub-satellite position, see the globe view (requires WebGL).

§ Visibility from observer

Set your observer location to see the next 7 days of passes ≥ 10°. The values pass through the URL so the page stays shareable.

No JS? Fill the form by hand. The geolocation button needs JavaScript.